Погода в Ленске

Погода в Ленске : погода сейчас, прогноз погоды и архив. Всё, что Вы хотите узнать о погоде в Ленске!

Хотите узнать прогноз погоды в Ленске? Тогда Вам сюда: Погода в Ленске

Поиск расширенной информации на нашем сайте:

Другие новости

Новости СМИ2

Главная страница сайта

Новости сайта

03.07.2017

Напоминаем, что на нашем специализированном сайте Метеоцентр.Азия вы можете получить высокодетализированные автоматические прогнозы погоды по пунктам России, СНГ и мира в авиационном формате (включающие направление и скорость ветра, видимость, явления погоды, количество и форму облачности, нижнюю и верхнюю границу облачности).


Погода в Ленске - сегодня

Время (UTC), дата Ветер
(°,м/с) 
Видим.   Явления Облачность Т
(°С)
Тd
(°С)
f(%) Тe
(°С)
Pmin
(гПа)
dP
(гПа)
Po
(мм)
O2
(г/м3)
Тmin Tmax R s Состояние
почвы
18 19.04.18 240 (ЮЗ) 20000 м    3/0 средняя, верхняя 
[Ac trans|Ci fib]
-7 -12.2 66 -10  1015.7  1.6  739  307           
21 19.04.18 240 (ЮЗ) 20000 м    8/0 средняя, верхняя 
[Ac trans|Ci fib]
-8.2 -12.9 69 -10  1016.7  0.9  739  308           
15 20.04.18 250 (З) 20000 м    3/0 верхняя 
[Ci fib]
-5.3 -11.8 60 -7  1020.9  743  306           
18 20.04.18 240 (ЮЗ) 20000 м    3/0 верхняя 
[Ci fib]
-9 -12.9 73 -11  1021.8  0.4  743  311           
21 20.04.18 тихо ()   20000 м    5/0 средняя, верхняя 
[Ac trans|Ci fib]
-10.3 -13.9 75 -10  1022.5  0.6  743  312           
00 21.04.18 220 (ЮЗ) 20000 м    6/0 средняя, верхняя 
[Ac trans|Ci fib]
-3.5 -11.5 54 -6  1022  0.3  743  305  -10.9      72  неравномерный
сухой снег
100% 
03 21.04.18 230 (ЮЗ) 20000 м    6/3 1500 м верхняя 
[Cu hum|Ci fib]
+2.5 -12.1 33 1020.7  -0.6  743  298           
06 21.04.18 240 (ЮЗ) 5{10}  20000 м    8/3 1500 м верхняя 
[Cu hum|Ci fib]
+5.1 -11.4 29 +3  1019.9  -0.6  743  295           
09 21.04.18 240 (ЮЗ) 20000 м    9/3 1500 м верхняя 
[Cu hum|Ci fib]
+5.3 -11 30 +4  1018.7  -1  742  294           
15 21.04.18 тихо ()   20000 м    10/0 средняя, верхняя 
[Ac trans|Cs]
-0.5 -9.8 49 -1  1019.2  -0.4  742  300           
18 21.04.18 тихо ()   20000 м    10/0 верхняя 
[Cs]
-2.9 -8.7 64 -3  1018.6  -0.9  741  303           
21 21.04.18 200 (Ю) 20000 м    10/0 средняя, верхняя 
[Ac trans|Cs]
-0.6 -7.8 58 -1  1017.1  -1.2  740  300           
00 22.04.18 180 (Ю) 20000 м    10/4 1500 м средняя, верхняя 
[Sc|Ac trans|Cs]
+3.6 -4.9 54 +3  1016.1  -0.4  740  295  -3.1      70  неравномерный
сухой снег
100% 
12 22.04.18 230 (ЮЗ) 1{10}  20000 м    8/4 1000 м верхняя 
[Sc|Ci fib]
+8.8 -1.7 48 +10  1012.2  -0.3  737  288    +10.8       
15 22.04.18 240 (ЮЗ) 20000 м    6/3 1500 м верхняя 
[Sc|Ci fib]
+7.7 -2.2 49 +8  1012  -0.3  737  289           
18 22.04.18 240 (ЮЗ) 20000 м    6/3 1500 м верхняя 
[Sc|Ci fib]
+7.5 -2.2 50 +7  1010.9  -1.1  736  289           
21 22.04.18 тихо ()   20000 м    10/8 1380 м верхняя 
[Sc|Ci fib]
+4.6 -3.5 56 +5  1009.1  -2  735  292           
03 23.04.18 180 (Ю) 20000 м    10/0 средняя, верхняя 
[Ac trans|Cs]
+12 -5.3 29 +11  1001.8  -3.6  730  282           
15 23.04.18 250 (З) 4{14}  20000 м    6/1 1500 м средняя, верхняя 
[Sc|Ac trans|Ci fib]
-0.6 -8.6 55 -3  1012.1  2.7  737  298           
18 23.04.18 270 (З) 4{13}  20000 м    3/1 1500 м верхняя 
[Sc|Ci fib]
-1.1 -12.5 42 -4  1015.1  2.8  739  300           
21 23.04.18 270 (З) 5{11}  20000 м    6/3 1500 м средняя, верхняя 
[Sc|Ac trans|Cs]
-3.6 -14.4 43 -7  1017.4  740  303           
03 24.04.18 250 (З) 7{12}  20000 м    3/1 1500 м верхняя 
[Cu hum|Ci fib]
+0.6 -12.8 36 -3  1014.5  -1.6  738  298           
06 24.04.18 270 (З) 6{13}  20000 м    4/3 1500 м верхняя 
[Cu med, cong|Ci fib]
+2.2 -12.7 32 -1  1013.2  -1.1  738  296           
09 24.04.18 280 (З) 5{12}  20000 м    3/1 1500 м верхняя 
[Cu hum|Ci fib]
+2.5 -12.1 33 1013.6  0.4  738  296           
15 24.04.18 270 (З) 20000 м    ясно 
-2.7 -12.7 46 -4  1017.1  1.4  740  302           
Время (UTC), дата Ветер
(°,м/с) 
Видим.   Явления Облачность Т
(°С)
Тd
(°С)
f(%) Тe
(°С)
Pmin
(гПа)
dP
(гПа)
Po
(мм)
O2
(г/м3)
Тmin Tmax R s Состояние
почвы

Для получения пояснительной информации подведите курсор к названию столбца.

ПОГОДА в Ленске - архив

Всё, что Вы хотите узнать о погоде в Ленске - удобно и подробно!

Выберите нужную дату (начиная с 1 января 2015* года) и нажмите кнопку "Найти".
Будут отображены архивные сводки погоды по пункту Ленск, начиная с указанной даты.


Отображать данные в формате CSV (для использования в таблицах Excel)


Внимание! Наш архив погоды предназначен исключительно для личного некоммерческого использования в познавательных целях. Если Вам необходимы официальные справки о состоянии погоды (для производственных, юридических, коммерческих и т.п. целей), обращайтесь в органы Росгидромета.

*Примечание: данная дата относится к архиву по метеостанциям СССР (Россия, СНГ, Балтия).
Архив по метеостанциям Зарубежной Европы и Азии (кроме Китая) хранится 10 дней, по другим регионам земного шара (Китай, Африка, Америка, Австралия, Океания) - 1 день.

Ленск - район местоположения метеостанции


Название, широта, долгота, высота метеостанции:
Ленск 60.7°ш. 114.9°д. 234 м над ур. моря [Российская Федерация]

Дополнительная информация

В oтличие oт бoльшинства пoгoдных сайтoв мы публикуем пoдрoбную метеoинфoрмацию в детальнoм прoфессиoнальнoм фoрмате.

Характеристики температуры и влажнoсти вoздуха измеряются на высoте 2 м в тени вдали oт зданий и деревьев.
Скoрoсть ветра измеряется на высoте 10 м (на урoвне рoста челoвека скoрoсть ветра ниже в 1.5-2 раза). Если метеoстанция нахoдится в гoрoде или в лесу, тo скoрoсть ветра занижена на 2-4 м/с пo сравнению с oткрытым местoм. Скoрoсть ветра над акватoриями крупных рек и oзёр, а также на вершинах хoлмoв на 2-5 м/с выше, чем в oбычных услoвиях.
Атмoсфернoе давление в разных тoчках местнoсти мoжет значительнo oтличаться oт давления на метеoстанции, в зависимoсти oт услoвий рельефа (при пoдъёме на 10 м давление пoнижается примернo на 1 мм рт.ст.).